• în România
  • Lista ţărilor
  • Pe 7 zile
  • Temperatura apei
  • Hartă satelitară
  • Meteo pe hartă
  • Widget-uri
  • user-avatar
    Intrare

    Meteo pe oră la Porto-Novo

    Astăzi, 17 Decembrie, Duminică

    Timp Temperatura Precipitaţii Vânt Presiune Umiditate
    00:00 +29°C° 0 mm 3 m/s 757 mmHg 83%
    01:00 +28°C° 0 mm 3 m/s 757 mmHg 85%
    02:00 +28°C° 0 mm 3 m/s 756 mmHg 86%
    03:00 +28°C° 0 mm 3 m/s 756 mmHg 87%
    04:00 +28°C° 0 mm 3 m/s 756 mmHg 88%
    05:00 +28°C° 0 mm 2 m/s 757 mmHg 89%
    06:00 +27°C° 0 mm 2 m/s 757 mmHg 89%
    07:00 +29°C° 0 mm 3 m/s 757 mmHg 80%
    08:00 +31°C° 0 mm 3 m/s 757 mmHg 72%
    09:00 +34°C° 0 mm 3 m/s 757 mmHg 63%
    10:00 +35°C° 0 mm 3 m/s 757 mmHg 56%
    11:00 +37°C° 0 mm 3 m/s 757 mmHg 50%
    12:00 +39°C° 0 mm 3 m/s 756 mmHg 43%
    13:00 +38°C° 0 mm 3 m/s 756 mmHg 47%
    14:00 +37°C° 0 mm 4 m/s 755 mmHg 50%
    15:00 +36°C° 0 mm 5 m/s 755 mmHg 53%
    16:00 +35°C° 0 mm 5 m/s 755 mmHg 60%
    17:00 +33°C° 0 mm 5 m/s 755 mmHg 67%
    18:00 +30°C° 0 mm 5 m/s 755 mmHg 74%
    19:00 +30°C° 0 mm 5 m/s 756 mmHg 75%
    20:00 +30°C° 0 mm 5 m/s 757 mmHg 77%
    21:00 +29°C° 0 mm 4 m/s 758 mmHg 79%
    22:00 +29°C° 0 mm 4 m/s 758 mmHg 80%
    23:00 +29°C° 0 mm 4 m/s 758 mmHg 82%

    Mâine, 18 Decembrie, Luni

    Timp Temperatura Precipitaţii Vânt Presiune Umiditate
    00:00 +29°C° 0 mm 4 m/s 758 mmHg 83%
    01:00 +29°C° 0 mm 4 m/s 757 mmHg 84%
    02:00 +29°C° 0 mm 4 m/s 757 mmHg 84%
    03:00 +28°C° 0 mm 4 m/s 756 mmHg 85%
    04:00 +28°C° 0 mm 4 m/s 756 mmHg 86%
    05:00 +28°C° 0 mm 4 m/s 757 mmHg 86%
    06:00 +28°C° 0 mm 4 m/s 757 mmHg 87%
    07:00 +29°C° 0 mm 4 m/s 757 mmHg 81%
    08:00 +30°C° 0 mm 4 m/s 757 mmHg 74%
    09:00 +32°C° 0 mm 4 m/s 758 mmHg 68%
    10:00 +34°C° 0 mm 4 m/s 757 mmHg 64%
    11:00 +35°C° 0 mm 4 m/s 757 mmHg 59%
    12:00 +36°C° 0 mm 4 m/s 757 mmHg 55%
    13:00 +35°C° 0 mm 5 m/s 756 mmHg 56%
    14:00 +35°C° 0 mm 5 m/s 755 mmHg 56%
    15:00 +35°C° 0 mm 5 m/s 755 mmHg 57%
    16:00 +34°C° 0 mm 5 m/s 755 mmHg 63%
    17:00 +32°C° 0 mm 5 m/s 755 mmHg 69%
    18:00 +30°C° 0 mm 4 m/s 755 mmHg 74%
    19:00 +30°C° 0 mm 4 m/s 756 mmHg 76%
    20:00 +29°C° 0 mm 4 m/s 757 mmHg 78%
    21:00 +29°C° 0 mm 4 m/s 757 mmHg 80%
    22:00 +29°C° 0 mm 4 m/s 757 mmHg 81%
    23:00 +29°C° 0 mm 4 m/s 757 mmHg 82%

    Poimâine, 19 Decembrie, Marţi

    Timp Temperatura Precipitaţii Vânt Presiune Umiditate
    00:00 +28°C° 0 mm 4 m/s 757 mmHg 82%
    01:00 +28°C° 0 mm 4 m/s 756 mmHg 83%
    02:00 +28°C° 0 mm 4 m/s 756 mmHg 83%
    03:00 +28°C° 0 mm 4 m/s 756 mmHg 84%
    04:00 +28°C° 0 mm 4 m/s 756 mmHg 84%
    05:00 +28°C° 0 mm 3 m/s 756 mmHg 85%
    06:00 +28°C° 0 mm 3 m/s 756 mmHg 85%
    07:00 +29°C° 0 mm 3 m/s 757 mmHg 78%
    08:00 +30°C° 0 mm 3 m/s 758 mmHg 71%
    09:00 +33°C° 0 mm 3 m/s 758 mmHg 64%
    10:00 +34°C° 0,1 mm 4 m/s 758 mmHg 60%
    11:00 +35°C° 0,1 mm 4 m/s 757 mmHg 56%
    12:00 +36°C° 0,1 mm 4 m/s 757 mmHg 52%
    13:00 +35°C° 0 mm 5 m/s 756 mmHg 53%
    14:00 +35°C° 0 mm 5 m/s 755 mmHg 53%
    15:00 +35°C° 0 mm 5 m/s 754 mmHg 54%
    16:00 +34°C° 0 mm 5 m/s 755 mmHg 59%
    17:00 +32°C° 0 mm 4 m/s 755 mmHg 64%
    18:00 +30°C° 0 mm 4 m/s 755 mmHg 69%
    19:00 +30°C° 0 mm 4 m/s 756 mmHg 72%
    20:00 +29°C° 0 mm 4 m/s 757 mmHg 75%
    21:00 +29°C° 0 mm 3 m/s 757 mmHg 79%
    22:00 +29°C° 0,2 mm 3 m/s 757 mmHg 80%
    23:00 +28°C° 0,2 mm 3 m/s 757 mmHg 82%

    20 Decembrie, Miercuri

    Timp Temperatura Precipitaţii Vânt Presiune Umiditate
    00:00 +28°C° 0,2 mm 3 m/s 757 mmHg 84%
    01:00 +28°C° 0,1 mm 3 m/s 756 mmHg 84%
    02:00 +28°C° 0,1 mm 3 m/s 756 mmHg 85%
    03:00 +28°C° 0,1 mm 3 m/s 755 mmHg 86%
    04:00 +28°C° 0 mm 3 m/s 756 mmHg 86%
    05:00 +27°C° 0 mm 3 m/s 756 mmHg 86%
    06:00 +27°C° 0 mm 3 m/s 756 mmHg 86%
    07:00 +29°C° 0 mm 3 m/s 757 mmHg 78%
    08:00 +31°C° 0 mm 3 m/s 757 mmHg 69%
    09:00 +33°C° 0 mm 3 m/s 758 mmHg 61%
    10:00 +35°C° 0 mm 3 m/s 757 mmHg 56%
    11:00 +36°C° 0 mm 3 m/s 757 mmHg 52%
    12:00 +37°C° 0 mm 3 m/s 756 mmHg 47%
    13:00 +37°C° 0,1 mm 4 m/s 756 mmHg 49%
    14:00 +36°C° 0,1 mm 4 m/s 755 mmHg 52%
    15:00 +35°C° 0,1 mm 4 m/s 754 mmHg 55%
    16:00 +34°C° 0,1 mm 4 m/s 755 mmHg 60%
    17:00 +32°C° 0,1 mm 4 m/s 755 mmHg 66%
    18:00 +30°C° 0,1 mm 4 m/s 755 mmHg 72%
    19:00 +30°C° 0 mm 4 m/s 756 mmHg 75%
    20:00 +29°C° 0 mm 4 m/s 756 mmHg 77%
    21:00 +29°C° 0 mm 4 m/s 757 mmHg 80%
    22:00 +29°C° 0 mm 4 m/s 757 mmHg 81%
    23:00 +29°C° 0 mm 3 m/s 757 mmHg 83%

    21 Decembrie, Joi

    Timp Temperatura Precipitaţii Vânt Presiune Umiditate
    00:00 +28°C° 0 mm 3 m/s 757 mmHg 84%
    01:00 +28°C° 0 mm 3 m/s 756 mmHg 85%
    02:00 +28°C° 0 mm 4 m/s 756 mmHg 85%
    03:00 +28°C° 0 mm 4 m/s 756 mmHg 85%
    04:00 +28°C° 0 mm 3 m/s 756 mmHg 86%
    05:00 +28°C° 0 mm 3 m/s 757 mmHg 87%
    06:00 +28°C° 0 mm 3 m/s 757 mmHg 87%
    07:00 +29°C° 0 mm 3 m/s 757 mmHg 80%
    08:00 +31°C° 0 mm 3 m/s 758 mmHg 73%
    09:00 +33°C° 0 mm 4 m/s 758 mmHg 66%
    10:00 +34°C° 0 mm 4 m/s 758 mmHg 61%
    11:00 +35°C° 0 mm 4 m/s 757 mmHg 56%
    12:00 +37°C° 0 mm 4 m/s 756 mmHg 52%
    13:00 +36°C° 0,1 mm 4 m/s 756 mmHg 53%
    14:00 +36°C° 0,1 mm 4 m/s 755 mmHg 55%
    15:00 +35°C° 0,1 mm 4 m/s 755 mmHg 57%
    16:00 +34°C° 0 mm 4 m/s 755 mmHg 63%
    17:00 +32°C° 0 mm 4 m/s 756 mmHg 68%
    18:00 +30°C° 0 mm 4 m/s 756 mmHg 74%
    19:00 +30°C° 0 mm 4 m/s 757 mmHg 76%
    20:00 +29°C° 0 mm 4 m/s 757 mmHg 79%
    21:00 +29°C° 0 mm 4 m/s 758 mmHg 81%
    22:00 +29°C° 0 mm 4 m/s 758 mmHg 81%
    23:00 +29°C° 0 mm 4 m/s 758 mmHg 82%

    22 Decembrie, Vineri

    Timp Temperatura Precipitaţii Vânt Presiune Umiditate
    00:00 +28°C° 0 mm 4 m/s 757 mmHg 83%
    01:00 +28°C° 0 mm 4 m/s 757 mmHg 84%
    02:00 +28°C° 0 mm 4 m/s 757 mmHg 85%
    03:00 +28°C° 0 mm 3 m/s 756 mmHg 86%
    04:00 +28°C° 0 mm 3 m/s 757 mmHg 86%
    05:00 +28°C° 0 mm 3 m/s 757 mmHg 87%
    06:00 +28°C° 0 mm 3 m/s 758 mmHg 88%
    07:00 +29°C° 1 mm 3 m/s 758 mmHg 82%
    08:00 +30°C° 1 mm 3 m/s 758 mmHg 75%
    09:00 +31°C° 1 mm 2 m/s 759 mmHg 69%
    10:00 +33°C° 0,6 mm 3 m/s 758 mmHg 62%
    11:00 +35°C° 0,6 mm 3 m/s 757 mmHg 56%
    12:00 +36°C° 0,6 mm 3 m/s 757 mmHg 50%
    13:00 +36°C° 0 mm 3 m/s 756 mmHg 50%
    14:00 +35°C° 0 mm 4 m/s 755 mmHg 51%
    15:00 +35°C° 0 mm 4 m/s 755 mmHg 51%
    16:00 +34°C° 0 mm 4 m/s 755 mmHg 57%
    17:00 +32°C° 0 mm 4 m/s 755 mmHg 63%
    18:00 +30°C° 0 mm 4 m/s 756 mmHg 68%
    19:00 +30°C° 0 mm 4 m/s 756 mmHg 71%
    20:00 +29°C° 0 mm 4 m/s 757 mmHg 74%
    21:00 +29°C° 0 mm 4 m/s 757 mmHg 76%
    22:00 +29°C° 0 mm 4 m/s 757 mmHg 78%
    23:00 +28°C° 0 mm 4 m/s 757 mmHg 80%
    Arată mai mult